Meteo Giornale » Osservazioni meteo Stati Uniti (USA) » Annapolis United States Naval Academy

ore: 14:54 - Osservazioni Meteo Annapolis United States Naval Academy
Lat. 38° 59' N Lon. 76° 29' W Alt. 2 metri s.l.m.

poco_nuvoloso

32 °C

Poco Nuvoloso

Temp. 24 Ore

24 °C

32 °C

Nord

9.3 Km/h

Dew point 23 °C

Umidità 59 %

Visibilità  10 Km

Il sole sorge alle ore 06:35

Il sole tramonta alle ore 19:36

Data e Ora Cielo e Fenomeni T °C DP °C Um. % Pres. hPa Vis. km Vento km/h
Oggi h: 14:54 poco_nuvoloso Poco Nuvoloso 32 23 59 1015 10 N 9.3
Oggi h: 13:54 sereno Sereno 32 22 55 1015 10 N 5.5
Oggi h: 12:54 sereno Sereno 32 22 55 1015 10 O/NO 7.4
Oggi h: 11:54 sereno Sereno 32 22 55 1016 10 N 7.4
Oggi h: 10:54 sereno Sereno 31 22 58 1016 10 O/NO 7.4
Oggi h: 09:54 sereno Sereno 29 22 66 1016 10 N 9.3
Oggi h: 08:54 sereno Sereno 28 23 74 1017 10 NO 7.4
Oggi h: 07:54 sereno Sereno 26 23 83 1017 10 N 5.5
Oggi h: 06:54 poco_nuvoloso Poco Nuvoloso 24 23 94 1017 10 N 0
Oggi h: 05:54 sereno Sereno 24 23 94 1016 10 N 0
Oggi h: 04:54 sereno Sereno 24 23 94 1016 10 N 0
Oggi h: 03:54 sereno Sereno 25 23 88 1016 10 N 0
Oggi h: 02:54 sereno Sereno 25 23 88 1017 10 N 0
Oggi h: 01:54 sereno Sereno 26 24 88 1017 10 N 0
Oggi h: 00:54 nuvoloso Nuvoloso 25 24 94 1018 10 N 0
Ieri h: 23:54 molto_nuvoloso Molto Nuvoloso 26 23 83 1018 10 N 0
Ieri h: 22:54 poco_nuvoloso Poco Nuvoloso 26 23 83 1018 10 N 0
Ieri h: 21:54 molto_nuvoloso Molto Nuvoloso 26 24 88 1017 10 S 14.8
Ieri h: 20:54 sereno Sereno 27 23 78 1018 10 N 0
Ieri h: 19:54 sereno Sereno 27 23 78 1017 10 N 0
Ieri h: 18:54 poco_nuvoloso Poco Nuvoloso 27 23 78 1018 10 E/NE 9.3
Ieri h: 17:54 sereno Sereno 28 22 69 1018 10 E/NE 9.3
Ieri h: 16:54 sereno Sereno 29 23 70 1018 10 N 0
Ieri h: 15:54 sereno Sereno 28 22 69 1018 10 E/NE 7.4